❰ Current Conditions

NWS Regional Weather Roundup - New England Area

REGIONAL WEATHER ROUNDUP
NATIONAL WEATHER SERVICE BOSTON/NORTON MA
1000 PM EST SAT FEB 22 2020

NOTE:  "FAIR" INDICATES FEW OR NO CLOUDS BELOW 12,000 FEET WITH NO 
SIGNIFICANT WEATHER AND/OR OBSTRUCTIONS TO VISIBILITY.

MAZALL-230400-
EASTERN MASSACHUSETTS
  
CITY           SKY/WX    TMP DP  RH WIND       PRES   REMARKS
BOSTON         FAIR      42  17  36 W10       30.15S                  
BEVERLY        FAIR      36  18  48 W6        30.14R WCI  31          
LAWRENCE       FAIR      35  19  52 W7        30.15F WCI  29          
BEDFORD        FAIR      30  17  58 CALM      30.15R                  
BLUE HILL        N/A     31  16  54 W14       30.12S WCI  21          
NORWOOD        FAIR      29  16  58 CALM      30.16S                  
MARSHFIELD     FAIR      28  18  64 SW5       30.16R WCI  23          
PLYMOUTH       FAIR      24  17  74 CALM      30.17R                  
TAUNTON        FAIR      24  17  74 SW3       30.17R                  
NEW BEDFORD    FAIR      26  20  77 SW5       30.18R WCI  20          
$$

MAZALL-230400-
CAPE COD AND THE ISLANDS
  
CITY           SKY/WX    TMP DP  RH WIND       PRES   REMARKS
FALMOUTH       CLEAR     32  19  59 MISG      30.15S                  
HYANNIS        FAIR      28  18  66 CALM      30.16R                  
CHATHAM        FAIR      33  20  58 W3        30.18R                  
PROVINCETOWN   FAIR      36  26  67 W7        30.17R WCI  30          
NANTUCKET      FAIR      39  31  72 W12       30.18R WCI  32          
MARTHAS VNYRD  FAIR      37  26  64 CALM      30.18R                  
$$
 
MAZALL-230400-
CENTRAL AND WESTERN MASSACHUSETTS
  
CITY           SKY/WX    TMP DP  RH WIND       PRES   REMARKS
WORCESTER      FAIR      34  16  47 W23G32    30.10F WCI  22          
FITCHBURG      FAIR      35  18  49 VRB5      30.14S WCI  31          
ORANGE         FAIR      26  18  71 CALM      30.16S                  
SPRINGFIELD    PTCLDY    28  17  63 CALM      30.16S                  
WESTFIELD      FAIR      24  16  71 S5        30.17S WCI  18          
NORTH ADAMS    FAIR      26  19  74 NW5       30.16S WCI  20          
PITTSFIELD     FAIR      26  17  68 CALM      30.13S                  
$$
 
RIZALL-230400-
RHODE ISLAND
  
CITY           SKY/WX    TMP DP  RH WIND       PRES   REMARKS
PROVIDENCE     FAIR      33  16  49 W3        30.19R                  
NEWPORT        FAIR      36  21  54 CALM      30.18R                  
BLOCK ISLAND   FAIR      38  27  64 W8        30.20R                  
SMITHFIELD     FAIR      31  16  54 CALM      30.16S                  
WESTERLY       FAIR      32  24  72 CALM      30.20R                  
$$
 
CTZALL-230400-
CONNECTICUT
  
CITY           SKY/WX    TMP DP  RH WIND       PRES   REMARKS
BRADLEY INTL   FAIR      30  16  56 W3        30.18S                  
HARTFORD       FAIR      30  20  66 CALM      30.19S                  
BRIDGEPORT     FAIR      36  17  46 SW6       30.21R WCI  31          
DANBURY        FAIR      26  16  65 CALM      30.20R                  
GROTON         FAIR      30  23  75 CALM      30.19R                  
NEW HAVEN      FAIR      27  21  78 CALM      30.19S                  
CHESTER        FAIR      36  10  35 CALM      30.18S                  
MERIDEN        FAIR      26  20  77 CALM      30.20R                  
WILLIMANTIC    FAIR      26  17  68 CALM      30.19S                  
OXFORD         FAIR      34  14  43 CALM      30.18R                  
$$

MEZ002-015-021-024-NHZ003-005-008-011-012-014-VTZ005-008-230400-
NORTHERN NEW ENGLAND
  
CITY           SKY/WX    TMP DP  RH WIND       PRES   REMARKS
PORTLAND ME    FAIR      34  17  50 VRB3      30.09F                  
BANGOR ME      FAIR      20  14  77 SW3       30.07R                  
CONCORD NH     FAIR      26  17  68 S6        30.13S WCI  19          
MANCHESTER NH  FAIR      33  19  56 CALM      30.12F                  
NASHUA NH      FAIR      28  23  81 CALM      30.15R                  
PORTSMOUTH NH  PTCLDY    34  17  49 SW3       30.11S                  
JAFFREY NH     FAIR      27  17  66 SE3       30.11S                  
KEENE NH       FAIR      24  20  84 CALM      30.15S                  
BURLINGTON VT  FAIR      30  20  66 S3        30.11R                  
MT. WASHINGTON MOCLDY    14   9  79 NW60        N/A  WCI -13          
$$

NYZ052-076-230400-
EASTERN NEW YORK
  
CITY           SKY/WX    TMP DP  RH WIND       PRES   REMARKS
ALBANY         FAIR      29  19  66 SW3       30.18S                  
NEW YORK CITY  FAIR      47   5  18 W8        30.20S                  
$$
 
ANZALL-230400-
MARINE OBSERVATIONS
  
STATION/POSITION TIME  TEMP    WIND        PRES    VSBY  WAVE
                       AIR SEA DIR/SP/G                  HT/PER
                 (UTC) (F)     (DEG/KT/KT) (MB)    (MI)  (FT/S)
BOSTON BUOY      0250   40 41  280/ 12/ 16 1020.2F         2/ 3
BUZZARDS BAY     0200          250/ 16/ 17 1022.6R
NANTUCKET SOUND  0240   38                 1022.1
MASS BAY-STELLWA 0204   39 39  300/ 14/ 16 1018.6R  1 7/8  1/ 3
ISLE OF SHOALS   0200   38     260/ 16/ 17 1019.6R
S OF BLOCK IS    0230      44                N/A           5/ 7
$$

......................KEY.........................
  SKY/WX - SKY CONDITION/PRESENT WEATHER
  TMP    - TEMPERATURE IN FAHRENHEIT
  DWPT   - DEWPOINT IN FAHRENHEIT
  RH     - RELATIVE HUMIDITY IN PERCENT
  WIND   - DIRECTION AND SPEED IN MPH
  PRES   - MEAN SEA LEVEL PRESSURE IN INCHES OF HG
  WCI    - WIND CHILL INDEX
  VSB    - VISIBILITY IN MILES
  HX     - HEAT INDEX
  TC     - TEMPERATURE IN CELSIUS
  VRB    - VARIABLE WIND DIRECTION